Printer-friendly version

IAU Minor Planet Center

Minor Planet Center

MPEC 2005-T24 : COMET P/2005 R1 (NEAT)

The following Minor Planet Electronic Circular may be linked-to from your own Web pages, but must not otherwise be redistributed electronically.


Read MPEC 2005-T23 Read MPEC 2005-T25


M.P.E.C. 2005-T24                                Issued 2005 Oct. 4, 16:08 UT

     The Minor Planet Electronic Circulars contain information on unusual
         minor planets and routine data on comets.  They are published
   on behalf of Commission 20 of the International Astronomical Union by the
          Minor Planet Center, Smithsonian Astrophysical Observatory,
                          Cambridge, MA 02138, U.S.A.

                  Supported in part by the Brinson Foundation
             Prepared using the Tamkin Foundation Computer Network

                              MPC@CFA.HARVARD.EDU
          URL http://cfa-www.harvard.edu/iau/mpc.html  ISSN 1523-6714

                            COMET P/2005 R1 (NEAT)

Observations:
    PK05R010  C2005 09 23.86747 00 35 51.94 +32 46 39.4                 ET024048
    PK05R010  C2005 09 23.86856 00 35 51.94 +32 46 39.3                 ET024048
    PK05R010  C2005 09 23.87296 00 35 51.86 +32 46 39.3                 ET024048
    PK05R010  C2005 09 23.87517 00 35 51.78 +32 46 39.5                 ET024048
    PK05R010  C2005 09 24.84899 00 35 38.11 +32 45 07.8                 ET024048
    PK05R010  C2005 09 24.85449 00 35 37.99 +32 45 07.6                 ET024048
    PK05R010  C2005 09 24.86218 00 35 37.89 +32 45 07.6                 ET024048
    PK05R010  C2005 09 24.86547 00 35 37.76 +32 45 07.4                 ET024048
    PK05R010  C2005 09 24.86657 00 35 37.77 +32 45 07.1                 ET024048
    PK05R010   2005 09 26.54028 00 35 12.87 +32 41 34.2          17.5 T ET024372
    PK05R010  C2005 09 28.41493 00 34 42.59 +32 36 06.7          16.8 T ET024673
    PK05R010  C2005 09 28.42060 00 34 42.48 +32 36 05.5                 ET024673
    PK05R010  C2005 09 28.42674 00 34 42.36 +32 36 04.2                 ET024673
    PK05R010  C2005 09 28.43160 00 34 42.27 +32 36 03.2                 ET024673
    PK05R010  C2005 09 30.72757 00 34 04.32 +32 27 18.3                 ET024349
    PK05R010  C2005 09 30.73214 00 34 04.24 +32 27 17.2                 ET024349
    PK05R010  C2005 09 30.73672 00 34 04.14 +32 27 15.9          17.1 T ET024349
    PK05R010  C2005 09 30.96268 00 34 00.80 +32 26 16.8                 ET024232
    PK05R010  C2005 09 30.97463 00 34 00.56 +32 26 13.8                 ET024232
    PK05R010  C2005 10 01.96419 00 33 43.93 +32 21 41.7          16.9 N ET024939
    PK05R010  C2005 10 01.97161 00 33 43.79 +32 21 39.8          16.9 N ET024939
    PK05R010  C2005 10 01.97903 00 33 43.64 +32 21 37.9          16.9 N ET024939

Observer details:
048 Hradec Kralove.  Observers M. Lehky, D. Hanzl.  0.40-m f/5 reflector + CCD.
232 Masquefa Observatory.  Observer E. Reina.  0.25-m f/3.3 Schmidt-Cassegrain
    + CCD.
349 Ageo.  Observer K. Kadota.  0.25-m f/5.0 reflector + CCD.
372 Geisei.  Observer T. Seki.  0.60-m f/3.5 reflector.
673 Table Mountain Observatory, Wrightwood.  Observer J. Young.  0.6-m f/16
    Cassegrain + CCD.
939 Observatorio Rodeno.  Observer J. Castellano.  0.20-m f/10
    Schmidt-Cassegrain + CCD.

Orbital elements:
    P/2005 R1 (NEAT)
T 2005 Oct. 8.3800 TT                                   MPC
q   2.046815             (2000.0)            P               Q
n   0.0764016      Peri.  117.9367      +0.9251686      -0.2759237
a   5.500484       Node   259.0665      +0.1805259      +0.9239210
e   0.627885       Incl.   15.3937      +0.3338764      +0.2650209
P  12.9
From 117 observations 2005 Sept. 2-Oct. 1.

Ephemeris:
    P/2005 R1 (NEAT)
Date    TT    R. A. (2000) Decl.     Delta      r     Elong.  Phase   m1    m2
2005 09 27    00 35.09   +32 40.4    1.127    2.050   148.5    14.8  17.4
2005 10 07    00 32.33   +31 52.4    1.104    2.047   153.2    12.7  17.3
2005 10 17    00 30.09   +30 27.1    1.102    2.048   154.9    11.9  17.3
2005 10 27    00 29.45   +28 35.0    1.121    2.054   152.6    12.9  17.4
2005 11 06    00 31.18   +26 30.1    1.160    2.065   147.3    15.0  17.5
2005 11 16    00 35.64   +24 26.6    1.220    2.079   140.3    17.7  17.6
2005 11 26    00 42.78   +22 35.6    1.299    2.098   132.8    20.2  17.8

Brian G. Marsden             (C) Copyright 2005 MPC           M.P.E.C. 2005-T24

Read MPEC 2005-T23 Read MPEC 2005-T25


Our Web policy. Index to the CBAT/MPC/ICQ pages.


Valid HTML 4.01!